FW7254 Weather Reports


time (UTC)temp
C
wind
direction
speed
KPH
gust
KPH
rain 1hr
cm
rain 24hr
cm
rain mn
cm
humidity
%
barometer
mb
20260505153318 15 184 0.0 0.0 0.00 0.00 0.00 65 1021.8
20260505151846 15 183 0.0 0.0 0.00 0.00 0.00 66 1022.1
20260505150331 15 184 0.0 0.0 0.00 0.00 0.00 67 1022.2
20260505140327 16 184 0.0 0.0 0.00 0.00 0.00 70 1022.3
20260505124835 16 105 0.0 0.0 0.00 0.00 0.00 65 1022.0
20260505123322 16 107 1.6 0.0 0.00 0.00 0.00 64 1022.1
20260505121829 16 105 3.2 0.0 0.00 0.00 0.00 64 1021.9
20260505120334 16 107 1.6 0.0 0.00 0.00 0.00 64 1022.0
20260505114815 16 107 1.6 0.0 0.00 0.00 0.00 64 1021.9
20260505113320 16 106 3.2 0.0 0.00 0.00 0.00 64 1021.8
20260505111827 16 114 4.8 0.0 0.00 0.00 0.00 63 1021.7
20260505110325 16 118 4.8 0.0 0.00 0.00 0.00 61 1021.5
20260505101825 16 92 1.6 0.0 0.00 0.00 0.00 56 1021.1
20260505100352 16 114 1.6 0.0 0.00 0.00 0.00 55 1021.0
20260505094837 17 117 0.0 0.0 0.00 0.00 0.00 54 1020.7
20260505093321 17 121 1.6 0.0 0.00 0.00 0.00 51 1020.7
20260505091826 17 119 1.6 0.0 0.00 0.00 0.00 47 1020.6
20260505090312 17 98 1.6 0.0 0.00 0.00 0.00 51 1020.3
20260505084820 18 108 3.2 0.0 0.00 0.00 0.00 49 1020.2
20260505083326 18 102 1.6 0.0 0.00 0.00 0.00 52 1020.0
20260505081835 18 263 1.6 0.0 0.00 0.00 0.00 50 1019.8
20260505080314 19 140 3.2 0.0 0.00 0.00 0.00 51 1019.8
20260505074826 20 107 3.2 0.0 0.00 0.00 0.00 49 1019.7
20260505073324 20 109 1.6 0.0 0.00 0.00 0.00 47 1019.5
20260505071831 20 175 3.2 0.0 0.00 0.00 0.00 43 1019.5
20260505070336 20 120 1.6 0.0 0.00 0.00 0.00 41 1019.3
20260505064822 21 128 1.6 0.0 0.00 0.00 0.00 43 1019.2
20260505063321 21 137 3.2 0.0 0.00 0.00 0.00 41 1019.1
20260505061836 22 221 1.6 0.0 0.00 0.00 0.00 41 1019.0
20260505060315 22 281 1.6 0.0 0.00 0.00 0.00 39 1018.6
20260505054825 22 102 1.6 0.0 0.00 0.00 0.00 35 1018.5
20260505053331 22 109 4.8 0.0 0.00 0.00 0.00 30 1018.5
20260505051840 22 113 8.0 0.0 0.00 0.00 0.00 31 1018.5
20260505050317 22 110 6.4 0.0 0.00 0.00 0.00 28 1018.6
20260505040326 23 106 0.0 0.0 0.00 0.00 0.00 22 1018.9
20260505034855 22 94 0.0 0.0 0.00 0.00 0.00 26 1018.7
20260505033318 22 94 0.0 0.0 0.00 0.00 0.00 27 1018.8
20260505031820 22 30 0.0 0.0 0.00 0.00 0.00 26 1018.7
20260505030324 22 30 0.0 0.0 0.00 0.00 0.00 26 1018.7
20260505024833 22 29 0.0 0.0 0.00 0.00 0.00 30 1018.9
20260505023312 21 37 0.0 0.0 0.00 0.00 0.00 29 1018.9
20260505021821 21 38 0.0 0.0 0.00 0.00 0.00 29 1018.8
20260505020327 21 103 0.0 0.0 0.00 0.00 0.00 26 1018.9
20260505014836 21 360 1.6 0.0 0.00 0.00 0.00 29 1018.8
20260505013314 20 355 0.0 0.0 0.00 0.00 0.00 32 1018.8
20260505011823 20 355 0.0 0.0 0.00 0.00 0.00 30 1018.8
20260505010330 20 355 0.0 0.0 0.00 0.00 0.00 31 1018.8
20260505004838 19 360 1.6 0.0 0.00 0.00 0.00 30 1018.7
20260505003315 19 360 1.6 0.0 0.00 0.00 0.00 33 1018.7
20260505001817 18 9 0.0 0.0 0.00 0.00 0.00 35 1018.6
20260505000323 18 360 1.6 0.0 0.00 0.00 0.00 35 1018.5
20260504234851 17 355 3.2 0.0 0.00 0.00 0.00 34 1018.5
20260504233316 17 360 3.2 0.0 0.00 0.00 0.00 33 1018.8
20260504231820 16 360 4.8 0.0 0.00 0.00 0.00 34 1018.7
20260504230319 16 5 3.2 0.0 0.00 0.00 0.00 37 1018.7
20260504224824 16 5 4.8 0.0 0.00 0.00 0.00 37 1018.5
20260504223327 16 355 6.4 0.0 0.00 0.00 0.00 38 1018.2
20260504221816 15 10 3.2 0.0 0.00 0.00 0.00 39 1018.0
20260504220321 15 34 1.6 0.0 0.00 0.00 0.00 42 1018.0
20260504214830 14 36 3.2 0.0 0.00 0.00 0.00 43 1017.9
20260504213332 14 5 1.6 0.0 0.00 0.00 0.00 43 1017.7
20260504211839 14 355 1.6 0.0 0.00 0.00 0.00 43 1017.4
20260504210317 13 360 1.6 0.0 0.00 0.00 0.00 44 1017.1
20260504204825 13 5 1.6 0.0 0.00 0.00 0.00 44 1016.7
20260504203312 13 360 1.6 0.0 0.00 0.00 0.00 43 1016.2
20260504201813 13 5 4.8 0.0 0.00 0.00 0.00 44 1015.9
20260504200324 13 360 3.2 0.0 0.00 0.00 0.00 43 1015.5
20260504194831 13 355 4.8 0.0 0.00 0.00 0.00 43 1015.1
20260504193311 14 5 4.8 0.0 0.00 0.00 0.00 43 1014.5
20260504191818 14 360 3.2 0.0 0.00 0.00 0.00 43 1013.9
20260504190323 13 5 4.8 0.0 0.00 0.00 0.00 46 1013.9
20260504184836 13 15 4.8 0.0 0.00 0.00 0.00 48 1013.6
20260504183336 13 360 6.4 0.0 0.00 0.00 0.00 52 1013.3
20260504181823 13 355 3.2 0.0 0.00 0.00 0.00 53 1013.1
20260504180349 13 5 1.6 0.0 0.00 0.00 0.00 52 1012.8
20260504174812 13 5 6.4 0.0 0.00 0.00 0.00 51 1012.3
20260504173318 13 342 8.0 0.0 0.00 0.00 0.00 51 1011.8
20260504171826 13 241 4.8 0.0 0.00 0.00 0.00 52 1011.4
20260504170332 13 355 4.8 0.0 0.00 0.00 0.00 52 1011.3
20260504160334 14 360 4.8 0.0 0.00 0.00 0.00 51 1009.6